Weather History for Shawnee, OK

Change the Weather History Date:

Thursday, February 21, 2013

  Actual Average (KTIK) Record (KTIK)
Temperature  
Mean Temperature 37 °F -  
Max Temperature 44 °F 52 °F 71 °F (2007)
Min Temperature 30 °F 33 °F 23 °F (2008)
Degree Days  
Heating Degree Days 28    
Moisture  
Dew Point 36 °F    
Average Humidity 97    
Maximum Humidity 100    
Minimum Humidity 86    
Precipitation  
Precipitation 0.01 in - - ()
Sea Level Pressure  
Sea Level Pressure 29.79 in    
Wind  
Wind Speed 11 mph (NE)    
Max Wind Speed 20 mph    
Max Gust Speed 26 mph    
Visibility 8 miles    
Events Snow , Thunderstorm    
Averages and records for this station are not official NWS values.
T = Trace of Precipitation, MM = Missing Value Source: NWS Daily Summary

Daily Weather History Graph

Daily Weather History Graph

Search for Another Location

Airport:

Trip Planner

Search our weather history database for the weather conditions in past years. The results will help you decide how hot, cold, wet, or windy it might be!

Date:

Astronomy

Feb. 21, 2013 Rise Set
Actual Time 7:07 AM CST 6:16 PM CST
Civil Twilight 6:41 AM CST 6:41 PM CST
Nautical Twilight 6:11 AM CST 7:11 PM CST
Astronomical Twilight 5:42 AM CST 7:40 PM CST
Moon 2:37 PM CST (2/21) 4:06 AM CST (2/21)
Length of Visible Light 12h 00m
Length of Day
11h 09m
Waxing Gibbous, 84% of the Moon is Illuminated
Feb 21
Waxing Gibbous
Feb 25
Full
Mar 4
Last Quarter
Mar 11
New
Mar 19
First Quarter

Hourly Weather History & Observations

Time (CST) Temp. Windchill Dew Point Humidity Pressure Visibility Wind Dir Wind Speed Gust Speed Precip Events Conditions
12:15 AM 35.6 °F 27.1 °F 35.6 °F 100% 29.91 in 10.0 mi East 12.7 mph 20.7 mph N/A   Overcast
12:35 AM 35.6 °F 26.6 °F 35.6 °F 100% 29.88 in 7.0 mi East 13.8 mph 23.0 mph N/A   Overcast
12:55 AM 35.6 °F 26.2 °F 35.6 °F 100% 29.87 in 10.0 mi East 15.0 mph 23.0 mph 0.01 in   Overcast
1:15 AM 35.6 °F 26.6 °F 35.6 °F 100% 29.84 in 10.0 mi East 13.8 mph 24.2 mph N/A   Overcast
1:35 AM 35.6 °F 26.6 °F 35.6 °F 100% 29.84 in 10.0 mi East 13.8 mph 20.7 mph N/A   Overcast
1:55 AM 35.6 °F 25.5 °F 35.6 °F 100% 29.81 in 7.0 mi ESE 17.3 mph 23.0 mph N/A   Overcast
2:15 AM 35.6 °F 26.6 °F 35.6 °F 100% 29.79 in 10.0 mi ESE 13.8 mph 24.2 mph N/A   Overcast
2:35 AM 35.6 °F 32.8 °F 35.6 °F 100% 29.85 in 10.0 mi NE 3.5 mph 21.9 mph N/A Thunderstorm Thunderstorm
2:55 AM 35.6 °F 27.5 °F 35.6 °F 100% 29.77 in 3.0 mi East 11.5 mph 19.6 mph N/A Thunderstorm Thunderstorm
3:15 AM 35.6 °F 27.1 °F 35.6 °F 100% 29.77 in 10.0 mi ESE 12.7 mph 23.0 mph N/A   Overcast
3:35 AM 35.6 °F 26.6 °F 35.6 °F 100% 29.74 in 10.0 mi ESE 13.8 mph 18.4 mph N/A Thunderstorm Overcast
3:55 AM 35.6 °F 26.2 °F 35.6 °F 100% 29.72 in 10.0 mi ESE 15.0 mph 21.9 mph N/A   Overcast
4:15 AM 35.6 °F 25.9 °F 35.6 °F 100% 29.70 in 10.0 mi ESE 16.1 mph 21.9 mph N/A   Overcast
4:35 AM 35.6 °F 28.0 °F 35.6 °F 100% 29.69 in 10.0 mi East 10.4 mph - N/A   Overcast
4:55 AM 35.6 °F 26.6 °F 35.6 °F 100% 29.68 in 7.0 mi ESE 13.8 mph - N/A Thunderstorm Overcast
5:15 AM 35.6 °F 32.8 °F 35.6 °F 100% 29.72 in 7.0 mi NNE 3.5 mph 9.2 mph N/A Thunderstorm Overcast
5:35 AM 35.6 °F 28.6 °F 35.6 °F 100% 29.74 in 4.0 mi NNW 9.2 mph - N/A Thunderstorm Overcast
5:55 AM 35.6 °F 30.7 °F 35.6 °F 100% 29.79 in 2.0 mi NW 5.8 mph - N/A   Overcast
6:15 AM 35.6 °F 27.5 °F 35.6 °F 100% 29.79 in 1.8 mi NNW 11.5 mph - N/A Thunderstorm Overcast
6:35 AM 35.6 °F 29.9 °F 35.6 °F 100% 29.80 in 2.5 mi NNW 6.9 mph - N/A   Overcast
6:55 AM 35.6 °F 30.7 °F 35.6 °F 100% 29.79 in 2.0 mi NNE 5.8 mph - N/A Thunderstorm Thunderstorm
7:15 AM 35.6 °F 27.5 °F 35.6 °F 100% 29.73 in 2.5 mi NE 11.5 mph - N/A Thunderstorm Overcast
7:35 AM 35.6 °F 29.9 °F 35.6 °F 100% 29.76 in 2.0 mi NNE 6.9 mph - N/A Snow , Thunderstorm Light Thunderstorms and Snow
7:55 AM 35.6 °F 29.9 °F 35.6 °F 100% 29.78 in 3.0 mi NE 6.9 mph - N/A   Overcast
8:15 AM 35.6 °F 32.8 °F 35.6 °F 100% 29.79 in 3.0 mi NE 3.5 mph - N/A   Overcast
8:35 AM 35.6 °F 29.2 °F 35.6 °F 100% 29.77 in 4.0 mi East 8.1 mph - N/A   Overcast
8:55 AM 35.6 °F 28.6 °F 35.6 °F 100% 29.77 in 5.0 mi East 9.2 mph - N/A   Overcast
9:15 AM 35.6 °F 28.0 °F 35.6 °F 100% 29.76 in 10.0 mi East 10.4 mph - N/A Thunderstorm Overcast
9:35 AM 35.6 °F 29.2 °F 35.6 °F 100% 29.75 in 10.0 mi East 8.1 mph - N/A   Overcast
9:55 AM 35.6 °F 29.2 °F 35.6 °F 100% 29.73 in 10.0 mi East 8.1 mph - N/A   Overcast
10:15 AM 35.6 °F 28.6 °F 35.6 °F 100% 29.72 in 10.0 mi ESE 9.2 mph - N/A   Overcast
10:35 AM 35.6 °F 26.6 °F 35.6 °F 100% 29.71 in 10.0 mi East 13.8 mph 17.3 mph N/A   Overcast
10:55 AM 35.6 °F 28.0 °F 35.6 °F 100% 29.72 in 10.0 mi ESE 10.4 mph - N/A   Overcast
11:15 AM 35.6 °F 28.6 °F 35.6 °F 100% 29.71 in 10.0 mi ESE 9.2 mph - N/A   Overcast
11:35 AM 37.4 °F 30.3 °F 37.4 °F 100% 29.71 in 10.0 mi SSE 10.4 mph - N/A   Overcast
11:55 AM 37.4 °F 29.8 °F 37.4 °F 100% 29.70 in 10.0 mi SE 11.5 mph - N/A   Overcast
12:15 PM 37.4 °F 30.3 °F 37.4 °F 100% 29.70 in 10.0 mi ESE 10.4 mph - N/A   Overcast
12:35 PM 37.4 °F 30.8 °F 37.4 °F 100% 29.69 in 10.0 mi SE 9.2 mph - N/A   Overcast
12:55 PM 37.4 °F 31.4 °F 37.4 °F 100% 29.69 in 10.0 mi SE 8.1 mph - N/A   Overcast
1:15 PM 37.4 °F 31.4 °F 37.4 °F 100% 29.68 in 10.0 mi SE 8.1 mph - N/A   Overcast
1:35 PM 39.2 °F 35.9 °F 39.2 °F 100% 29.69 in 10.0 mi South 4.6 mph - N/A   Overcast
1:55 PM 39.2 °F 37.0 °F 39.2 °F 100% 29.69 in 10.0 mi South 3.5 mph - N/A   Overcast
2:15 PM 41.0 °F 39.0 °F 41.0 °F 100% 29.68 in 10.0 mi SE 3.5 mph - N/A   Overcast
2:35 PM 41.0 °F - 41.0 °F 100% 29.69 in 10.0 mi Calm Calm - N/A   Overcast
2:55 PM 41.0 °F - 41.0 °F 100% 29.68 in 10.0 mi Calm Calm - N/A   Overcast
3:15 PM 42.8 °F - 41.0 °F 93% 29.69 in 10.0 mi Calm Calm - N/A   Overcast
3:35 PM 42.8 °F 41.1 °F 42.8 °F 100% 29.70 in 10.0 mi West 3.5 mph - N/A   Overcast
3:55 PM 44.6 °F 40.7 °F 42.8 °F 93% 29.71 in 10.0 mi WNW 6.9 mph - N/A   Overcast
4:35 PM 42.8 °F 37.0 °F 41.0 °F 93% 29.75 in 10.0 mi WNW 10.4 mph - N/A   Overcast
4:55 PM 41.0 °F 35.2 °F 41.0 °F 100% 29.76 in 10.0 mi WNW 9.2 mph - N/A   Overcast
5:15 PM 41.0 °F 35.8 °F 41.0 °F 100% 29.77 in 5.0 mi WNW 8.1 mph - N/A   Overcast
5:35 PM 41.0 °F 35.2 °F 41.0 °F 100% 29.78 in 7.0 mi WNW 9.2 mph - N/A   Overcast
5:55 PM 41.0 °F 35.2 °F 41.0 °F 100% 29.79 in 10.0 mi West 9.2 mph - N/A   Overcast
6:15 PM 41.0 °F 34.3 °F 39.2 °F 93% 29.79 in 10.0 mi WNW 11.5 mph - N/A   Mostly Cloudy
6:35 PM 41.0 °F 33.5 °F 39.2 °F 93% 29.82 in 10.0 mi West 13.8 mph 17.3 mph N/A   Overcast
6:55 PM 39.2 °F 30.5 °F 37.4 °F 93% 29.82 in 10.0 mi NW 16.1 mph - N/A   Overcast
7:15 PM 37.4 °F 28.5 °F 35.6 °F 93% 29.84 in 10.0 mi WNW 15.0 mph 20.7 mph N/A   Overcast
7:35 PM 37.4 °F 29.3 °F 35.6 °F 93% 29.84 in 10.0 mi NW 12.7 mph - N/A   Overcast
7:55 PM 35.6 °F 24.8 °F 33.8 °F 93% 29.86 in 10.0 mi NW 19.6 mph 26.5 mph N/A   Overcast
8:15 PM 35.6 °F 27.1 °F 33.8 °F 93% 29.88 in 10.0 mi WNW 12.7 mph 19.6 mph N/A   Overcast
8:35 PM 35.6 °F 25.5 °F 33.8 °F 93% 29.90 in 10.0 mi NW 17.3 mph 25.3 mph N/A   Overcast
8:55 PM 33.8 °F 26.4 °F 32.0 °F 93% 29.92 in 10.0 mi NW 9.2 mph 21.9 mph N/A   Overcast
9:15 PM 33.8 °F 25.3 °F 32.0 °F 93% 29.92 in 10.0 mi NW 11.5 mph - N/A   Overcast
9:35 PM 33.8 °F 23.9 °F 32.0 °F 93% 29.94 in 10.0 mi WNW 15.0 mph 20.7 mph N/A   Overcast
9:55 PM 33.8 °F 24.3 °F 30.2 °F 87% 29.95 in 10.0 mi WNW 13.8 mph - N/A   Overcast
10:15 PM 32.0 °F 22.5 °F 30.2 °F 93% 29.96 in 10.0 mi NW 12.7 mph - N/A   Scattered Clouds
10:35 PM 32.0 °F 22.1 °F 30.2 °F 93% 29.98 in 10.0 mi NW 13.8 mph 19.6 mph N/A   Mostly Cloudy
10:55 PM 32.0 °F 23.0 °F 28.4 °F 87% 30.00 in 10.0 mi NW 11.5 mph - N/A   Mostly Cloudy
11:15 PM 32.0 °F 23.0 °F 28.4 °F 87% 30.00 in 10.0 mi WNW 11.5 mph 16.1 mph N/A   Overcast
11:35 PM 30.2 °F 19.8 °F 26.6 °F 86% 30.00 in 10.0 mi WNW 13.8 mph 21.9 mph N/A   Scattered Clouds
11:55 PM 30.2 °F 19.8 °F 26.6 °F 86% 30.00 in 10.0 mi WNW 13.8 mph - N/A   Clear